Weather History for Teterboro, NJ

Change the Weather History Date:

Thursday, June 6, 2013

  Actual Average Record
Temperature  
Mean Temperature 63 °F -  
Max Temperature 73 °F 75 °F 90 °F (2005)
Min Temperature 55 °F 55 °F 51 °F (2012)
Degree Days  
Heating Degree Days 2    
Growing Degree Days 13 (Base 50)    
Moisture  
Dew Point 54 °F    
Average Humidity 72    
Maximum Humidity 94    
Minimum Humidity 39    
Precipitation  
Precipitation 0.11 in - - ()
Sea Level Pressure  
Sea Level Pressure 30.09 in    
Wind  
Wind Speed 5 mph (SE)    
Max Wind Speed 17 mph    
Max Gust Speed 23 mph    
Visibility 10 miles    
Events Rain    
Averages and records for this station are not official NWS values.
T = Trace of Precipitation, MM = Missing Value Source: NWS Daily Summary

Daily Weather History Graph

Daily Weather History Graph

Search for Another Location

Airport:

Trip Planner

Search our weather history database for the weather conditions in past years. The results will help you decide how hot, cold, wet, or windy it might be!

Date:

Astronomy

Jun. 06, 2013 Rise Set
Actual Time 5:24 AM EDT 8:25 PM EDT
Civil Twilight 4:51 AM EDT 8:58 PM EDT
Nautical Twilight 4:09 AM EDT 9:40 PM EDT
Astronomical Twilight 3:20 AM EDT 10:29 PM EDT
Moon 4:05 AM EDT (6/6) 6:44 PM EDT (6/6)
Length of Visible Light 16h 06m
Length of Day
15h 00m
Waning Crescent, 4% of the Moon is Illuminated
Jun 6
Waning Crescent
Jun 8
New
Jun 16
First Quarter
Jun 23
Full
Jun 30
Last Quarter

Hourly Weather History & Observations

Time (EDT) Temp. Dew Point Humidity Pressure Visibility Wind Dir Wind Speed Gust Speed Precip Events Conditions
12:51 AM 59.0 °F 54.0 °F 83% 30.14 in 10.0 mi SSW 3.5 mph - N/A   Clear
1:51 AM 59.0 °F 54.0 °F 83% 30.13 in 10.0 mi Calm Calm - N/A   Clear
2:51 AM 57.9 °F 52.0 °F 81% 30.14 in 10.0 mi North 3.5 mph - N/A   Clear
3:51 AM 57.0 °F 52.0 °F 83% 30.13 in 10.0 mi Calm Calm - N/A   Clear
4:42 AM 55.4 °F 53.6 °F 94% 30.13 in 10.0 mi Calm Calm - N/A   Mostly Cloudy
4:51 AM 55.9 °F 54.0 °F 93% 30.13 in 10.0 mi Calm Calm - N/A   Overcast
5:51 AM 57.0 °F 54.0 °F 89% 30.12 in 10.0 mi Calm Calm - N/A   Mostly Cloudy
6:51 AM 61.0 °F 55.9 °F 83% 30.13 in 7.0 mi North 3.5 mph - N/A   Overcast
7:51 AM 63.0 °F 55.9 °F 78% 30.13 in 8.0 mi East 6.9 mph - N/A   Partly Cloudy
8:51 AM 64.0 °F 55.9 °F 75% 30.13 in 10.0 mi ESE 5.8 mph 23.0 mph N/A   Clear
9:51 AM 68.0 °F 54.0 °F 61% 30.11 in 10.0 mi Variable 3.5 mph - N/A   Clear
10:51 AM 70.0 °F 53.1 °F 55% 30.10 in 10.0 mi SSE 10.4 mph - N/A   Partly Cloudy
11:51 AM 71.1 °F 48.9 °F 45% 30.10 in 10.0 mi SSE 12.7 mph 18.4 mph N/A   Clear
12:51 PM 71.1 °F 46.0 °F 41% 30.08 in 10.0 mi SSE 15.0 mph 19.6 mph N/A   Clear
1:51 PM 71.1 °F 45.0 °F 39% 30.08 in 10.0 mi SE 17.3 mph - N/A   Clear
2:51 PM 71.1 °F 48.0 °F 44% 30.08 in 10.0 mi SSE 11.5 mph 23.0 mph N/A   Mostly Cloudy
3:51 PM 69.1 °F 52.0 °F 54% 30.06 in 10.0 mi SSE 9.2 mph - N/A   Mostly Cloudy
4:51 PM 66.9 °F 55.0 °F 66% 30.06 in 10.0 mi SE 11.5 mph - 0.00 in Rain Light Rain
5:51 PM 69.1 °F 55.9 °F 63% 30.04 in 10.0 mi SE 5.8 mph - 0.00 in Rain Light Rain
6:51 PM 66.9 °F 57.9 °F 73% 30.04 in 10.0 mi SE 12.7 mph 19.6 mph 0.00 in Rain Light Rain
7:51 PM 64.0 °F 57.9 °F 80% 30.04 in 10.0 mi ESE 9.2 mph - 0.00 in Rain Light Rain
8:51 PM 64.0 °F 59.0 °F 84% 30.03 in 10.0 mi SE 6.9 mph - 0.01 in Rain Light Rain
9:51 PM 63.0 °F 57.9 °F 84% 30.03 in 10.0 mi SE 6.9 mph - 0.01 in Rain Light Rain
10:51 PM 62.1 °F 57.9 °F 86% 30.03 in 8.0 mi SE 9.2 mph - 0.03 in Rain Light Rain
11:51 PM 62.1 °F 57.9 °F 86% 30.02 in 8.0 mi ESE 5.8 mph - 0.06 in Rain Light Rain